Monterey, CA

7:58 AM PST on November 22, 2017 (GMT -0800)
Monterey Peninsula

Weather History for KMRY - January, 2013

Change the Weather History Date:

Saturday, January 26, 2013

  Actual Average Record
Temperature  
Mean Temperature 53 °F 51 °F  
Max Temperature 55 °F 60 °F 74 °F (2011)
Min Temperature 50 °F 43 °F 38 °F (2007)
Degree Days  
Heating Degree Days 12    
Month to date heating degree days 389  
Since 1 July heating degree days 1747  
Cooling Degree Days 0    
Month to date cooling degree days 0  
Year to date cooling degree days 0  
Growing Degree Days 2 (Base 50)    
Moisture  
Dew Point 46 °F    
Average Humidity 81    
Maximum Humidity 100    
Minimum Humidity 61    
Precipitation  
Precipitation 0.00 in - 0.59 in (1999)
Month to date precipitation 0.81  
Year to date precipitation 0.81  
Since 1 July precipitation 9.05  
Sea Level Pressure  
Sea Level Pressure 30.09 in    
Wind  
Wind Speed 8 mph (West)    
Max Wind Speed 18 mph    
Max Gust Speed 23 mph    
Visibility 10 miles    
Events      
T = Trace of Precipitation, MM = Missing Value Source: NWS Daily Summary

Daily Weather History Graph

Daily Weather History Graph

Search for Another Location

Airport or City:

Trip Planner

Search our weather history database for the weather conditions in past years. The results will help you decide how hot, cold, wet, or windy it might be!

Date:

Astronomy

Jan. 26, 2013 Rise Set
Actual Time 7:13 AM PST 5:27 PM PST
Civil Twilight 6:45 AM PST 5:54 PM PST
Nautical Twilight 6:14 AM PST 6:25 PM PST
Astronomical Twilight 5:43 AM PST 6:56 PM PST
Moon 5:25 PM PST (1/26) 6:35 AM PST (1/26)
Length of Visible Light 11h 09m
Length of Day
10h 14m
Full, 100% of the Moon is Illuminated
Jan 26
Full
Jan 26
Full
Feb 3
Last Quarter
Feb 9
New
Feb 17
First Quarter

Hourly Weather History & Observations

Time (PST) Temp. Dew Point Humidity Pressure Visibility Wind Dir Wind Speed Gust Speed Precip Events Conditions
12:54 AM 51.1 °F 48.9 °F 92% 30.07 in 10.0 mi ESE 4.6 mph - N/A   Mostly Cloudy
1:46 AM 51.8 °F 51.8 °F 100% 30.04 in 9.0 mi Calm Calm - N/A   Mostly Cloudy
1:54 AM 52.0 °F 51.1 °F 97% 30.07 in 10.0 mi Calm Calm - N/A   Mostly Cloudy
2:54 AM 53.1 °F 51.1 °F 93% 30.07 in 7.0 mi Calm Calm - N/A   Overcast
3:51 AM 53.6 °F 50.0 °F 88% 30.03 in 10.0 mi Calm Calm - N/A   Overcast
3:54 AM 53.1 °F 50.0 °F 89% 30.06 in 10.0 mi Calm Calm - N/A   Overcast
4:02 AM 53.6 °F 50.0 °F 88% 30.02 in 10.0 mi Calm Calm - N/A   Overcast
4:54 AM 52.0 °F 50.0 °F 93% 30.06 in 8.0 mi Calm Calm - N/A   Mostly Cloudy
5:13 AM 51.8 °F 50.0 °F 94% 30.02 in 9.0 mi Calm Calm - N/A   Mostly Cloudy
5:36 AM 51.8 °F 50.0 °F 94% 30.03 in 8.0 mi SW 3.5 mph - N/A   Overcast
5:54 AM 52.0 °F 51.1 °F 97% 30.07 in 5.0 mi SW 5.8 mph - N/A   Overcast
6:54 AM 52.0 °F 51.1 °F 97% 30.07 in 10.0 mi WSW 4.6 mph - N/A   Overcast
7:54 AM 52.0 °F 51.1 °F 97% 30.08 in 7.0 mi WSW 6.9 mph - N/A   Mostly Cloudy
8:39 AM 53.6 °F 51.8 °F 94% 30.04 in 10.0 mi SW 4.6 mph - N/A   Overcast
8:54 AM 53.1 °F 51.1 °F 93% 30.08 in 10.0 mi SSW 4.6 mph - N/A   Mostly Cloudy
9:40 AM 53.6 °F 51.8 °F 94% 30.06 in 10.0 mi West 10.4 mph - N/A   Overcast
9:54 AM 53.1 °F 51.1 °F 93% 30.10 in 9.0 mi West 11.5 mph - N/A   Overcast
10:38 AM 51.8 °F 46.4 °F 82% 30.07 in 10.0 mi West 8.1 mph 18.4 mph N/A   Overcast
10:54 AM 52.0 °F 44.1 °F 74% 30.12 in 10.0 mi West 12.7 mph 17.3 mph N/A   Overcast
11:54 AM 53.1 °F 44.1 °F 71% 30.10 in 10.0 mi West 12.7 mph - N/A   Overcast
12:24 PM 53.6 °F 42.8 °F 67% 30.05 in 10.0 mi WSW 12.7 mph 17.3 mph N/A   Overcast
12:54 PM 53.1 °F 44.1 °F 71% 30.08 in 10.0 mi West 9.2 mph 16.1 mph N/A   Mostly Cloudy
1:54 PM 55.0 °F 43.0 °F 64% 30.08 in 10.0 mi West 9.2 mph 19.6 mph N/A   Scattered Clouds
2:54 PM 54.0 °F 43.0 °F 66% 30.09 in 10.0 mi West 12.7 mph 21.9 mph N/A   Partly Cloudy
3:54 PM 53.1 °F 43.0 °F 69% 30.09 in 10.0 mi West 11.5 mph 18.4 mph N/A   Partly Cloudy
4:54 PM 52.0 °F 43.0 °F 71% 30.09 in 10.0 mi West 12.7 mph - N/A   Clear
5:54 PM 51.1 °F 43.0 °F 74% 30.11 in 10.0 mi West 10.4 mph 18.4 mph N/A   Clear
6:54 PM 50.0 °F 42.1 °F 74% 30.12 in 10.0 mi West 11.5 mph 18.4 mph N/A   Partly Cloudy
7:39 PM 51.8 °F 42.8 °F 71% 30.09 in 10.0 mi West 12.7 mph 18.4 mph N/A   Mostly Cloudy
7:54 PM 50.0 °F 42.1 °F 74% 30.14 in 10.0 mi West 6.9 mph - N/A   Mostly Cloudy
8:54 PM 51.1 °F 41.0 °F 68% 30.14 in 10.0 mi WNW 6.9 mph - N/A   Overcast
9:35 PM 50.0 °F 41.0 °F 71% 30.11 in 10.0 mi West 10.4 mph 16.1 mph N/A   Scattered Clouds
9:54 PM 50.0 °F 41.0 °F 71% 30.15 in 10.0 mi West 10.4 mph - N/A   Scattered Clouds
10:03 PM 50.0 °F 41.0 °F 71% 30.11 in 10.0 mi West 9.2 mph - N/A   Mostly Cloudy
10:42 PM 50.0 °F 41.0 °F 71% 30.11 in 10.0 mi West 8.1 mph - N/A   Mostly Cloudy
10:54 PM 50.0 °F 42.1 °F 74% 30.16 in 10.0 mi West 10.4 mph - N/A   Mostly Cloudy
11:01 PM 50.0 °F 42.8 °F 76% 30.11 in 10.0 mi WNW 6.9 mph - N/A   Mostly Cloudy
11:36 PM 50.0 °F 42.8 °F 76% 30.12 in 10.0 mi NW 8.1 mph - N/A   Mostly Cloudy
11:54 PM 50.0 °F 41.0 °F 71% 30.16 in 10.0 mi WNW 5.8 mph - N/A   Overcast